Nashville, TN

12:17 AM CST on November 15, 2019 (GMT -0600)
Nashville International

Weather History for KBNA - May, 2019

Change the Weather History Date:

Sunday, May 26, 2019

  Actual Average Record
Temperature  
Mean Temperature 80 °F 70 °F  
Max Temperature 93 °F 81 °F 95 °F (2012)
Min Temperature 68 °F 60 °F 44 °F (1961)
Degree Days  
Heating Degree Days 0    
Month to date heating degree days 27  
Since 1 July heating degree days 3220  
Cooling Degree Days 16    
Month to date cooling degree days 198  
Year to date cooling degree days 257  
Growing Degree Days 30 (Base 50)    
Moisture  
Dew Point 62 °F    
Average Humidity 55    
Maximum Humidity 87    
Minimum Humidity 27    
Precipitation  
Precipitation 0.00 in 0.16 in 2.23 in (1917)
Month to date precipitation 1.58 4.68  
Year to date precipitation 29.46 20.48  
Sea Level Pressure  
Sea Level Pressure 30.08 in    
Wind  
Wind Speed 5 mph ()    
Max Wind Speed 17 mph    
Max Gust Speed 28 mph    
Visibility 10.0 miles    
Events      
T = Trace of Precipitation, MM = Missing Value Source: Averaged Metar Reports

Daily Weather History Graph

Daily Weather History Graph

Search for Another Location

Airport or City:

Astronomy

May. 26, 2019 Rise Set
Actual Time 5:33 AM CDT 7:54 PM CDT
Civil Twilight 5:04 AM CDT 8:23 PM CDT
Nautical Twilight 4:28 AM CDT 8:59 PM CDT
Astronomical Twilight 3:48 AM CDT 9:39 PM CDT
Moon 1:30 AM CDT (5/26) 12:26 PM CDT (5/26)
Length of Visible Light 15h 19m
Length of Day
14h 20m
Waning Gibbous, 50% of the Moon is Illuminated
May 26
Waning Gibbous
Jun 3
New
Jun 10
First Quarter
Jun 17
Full
Jun 25
Last Quarter

Hourly Weather History & Observations

Time (CDT) Temp. Heat Index Dew Point Humidity Pressure Visibility Wind Dir Wind Speed Gust Speed Precip Events Conditions
12:53 AM 71.1 °F - 64.9 °F 81% 30.08 in 10.0 mi South 4.6 mph - N/A   Clear
1:53 AM 71.1 °F - 64.0 °F 78% 30.07 in 10.0 mi South 4.6 mph - N/A   Partly Cloudy
2:53 AM 71.1 °F - 64.0 °F 78% 30.08 in 10.0 mi Calm Calm - N/A   Scattered Clouds
3:53 AM 70.0 °F - 64.0 °F 81% 30.09 in 10.0 mi South 4.6 mph - N/A   Scattered Clouds
4:53 AM 71.1 °F - 64.0 °F 78% 30.10 in 10.0 mi South 3.5 mph - N/A   Partly Cloudy
5:53 AM 68.0 °F - 64.0 °F 87% 30.12 in 10.0 mi SSE 4.6 mph - N/A   Scattered Clouds
6:53 AM 72.0 °F - 66.0 °F 81% 30.13 in 10.0 mi South 4.6 mph - N/A   Scattered Clouds
7:53 AM 78.1 °F - 66.0 °F 66% 30.14 in 10.0 mi Calm Calm - N/A   Scattered Clouds
8:53 AM 84.0 °F 85.4 °F 64.0 °F 51% 30.13 in 10.0 mi WSW 6.9 mph - N/A   Mostly Cloudy
9:53 AM 86.0 °F 87.3 °F 64.0 °F 48% 30.13 in 10.0 mi West 6.9 mph - N/A   Mostly Cloudy
10:53 AM 88.0 °F 88.7 °F 63.0 °F 43% 30.12 in 10.0 mi WSW 11.5 mph 19.6 mph N/A   Mostly Cloudy
11:53 AM 89.1 °F 90.0 °F 63.0 °F 42% 30.11 in 10.0 mi Variable 6.9 mph - N/A   Scattered Clouds
12:53 PM 91.9 °F 92.5 °F 62.1 °F 37% 30.09 in 10.0 mi SW 13.8 mph - N/A   Scattered Clouds
1:53 PM 91.9 °F 91.8 °F 61.0 °F 35% 30.08 in 10.0 mi West 13.8 mph 20.7 mph N/A   Scattered Clouds
2:53 PM 93.0 °F 92.3 °F 59.0 °F 32% 30.06 in 10.0 mi WSW 13.8 mph 23.0 mph N/A   Scattered Clouds
3:53 PM 93.0 °F 91.4 °F 55.9 °F 29% 30.05 in 10.0 mi WSW 8.1 mph 24.2 mph N/A   Scattered Clouds
4:53 PM 91.9 °F 89.5 °F 53.1 °F 27% 30.04 in 10.0 mi WSW 12.7 mph 23.0 mph N/A   Partly Cloudy
5:53 PM 91.0 °F 88.7 °F 54.0 °F 28% 30.04 in 10.0 mi West 13.8 mph 20.7 mph N/A   Scattered Clouds
6:53 PM 89.1 °F 87.1 °F 55.0 °F 31% 30.04 in 10.0 mi WSW 8.1 mph - N/A   Scattered Clouds
7:53 PM 84.9 °F 83.7 °F 55.9 °F 37% 30.03 in 10.0 mi SW 4.6 mph - N/A   Scattered Clouds
8:53 PM 81.0 °F 82.5 °F 64.0 °F 56% 30.04 in 10.0 mi North 5.8 mph - N/A   Scattered Clouds
9:53 PM 78.1 °F - 64.9 °F 64% 30.04 in 10.0 mi Calm Calm - N/A   Scattered Clouds
10:53 PM 75.9 °F - 64.9 °F 69% 30.04 in 10.0 mi South 3.5 mph - N/A   Scattered Clouds
11:53 PM 75.0 °F - 64.0 °F 69% 30.04 in 10.0 mi Calm Calm - N/A   Mostly Cloudy